FO-29
1 24278U 96046B 11341.91469870 .00000024 00000-0 58924-4 0 7257
2 24278 098.5714 102.8633 0350792 167.0654 193.9776 13.52973381755952
SO-33
1 25509U 98061B 11341.41242644 .00001595 00000-0 30494-3 0 01177
2 25509 031.4366 344.4801 0353135 316.5735 040.7573 14.28593202685067
RS-22
1 27939U 03042A 11342.61635464 .00001245 00000-0 24673-3 0 8812
2 27939 097.8250 188.0955 0013920 148.6387 211.5651 14.63811456437858
VO-52
1 28650U 05017B 11342.73776834 .00002504 00000-0 31639-3 0 9682
2 28650 097.6229 017.8823 0025872 311.8294 048.0732 14.82504636356602
SO-67
1 35870U 09049F 11342.67103588 .00007850 00000-0 34475-3 0 4760
2 35870 097.2608 020.0973 0003322 109.2939 037.5138 15.22186073123469
HO-68
1 36122U 09072B 11342.67653682 -.00000044 00000-0 00000 0 0 9949
2 36122 100.3934 040.6640 0007518 184.5998 175.5052 13.16291100 95194
UO-11
1 14781U 84021B 11341.95398121 .00001326 00000-0 18125-3 0 07354
2 14781 097.9821 037.9058 0008226 300.5565 059.4837 14.80215736491493
AO-16
1 20439U 90005D 11341.87158856 .00000375 00000-0 15539-3 0 3434
2 20439 098.4071 285.8740 0011488 013.2574 346.8907 14.31990233142477
LO-19
1 20442U 90005G 11342.90209184 .00000474 00000-0 19151-3 0 2662
2 20442 098.3712 290.5673 0012110 002.9781 357.1473 14.32213741142801
AO-27
1 22825U 93061C 11342.87265092 .00000317 00000-0 14119-3 0 9785
2 22825 098.5529 283.8937 0008990 117.8538 242.3552 14.29407401949140
IO-26
1 22826U 93061D 11342.90981326 .00000302 00000-0 13448-3 0 7253
2 22826 098.5473 284.3531 0009709 113.1426 247.0778 14.29675600949273
GO-32
1 25397U 98043D 11341.84244426 .00000279 00000-0 14149-3 0 06485
2 25397 098.3432 325.2562 0002189 112.7383 247.4022 14.23244444696663
NO-44
1 26931U 01043C 11341.81251602 .00000050 00000-0 51480-4 0 9148
2 26931 067.0521 256.1239 0004923 274.6583 085.3934 14.29731997531749
SO-50
1 27607U 02058C 11342.54861928 .00001402 00000-0 23214-3 0 6338
2 27607 064.5553 157.7363 0083784 285.7200 073.4679 14.72072553481755
CO-55
1 27844U 03031E 11341.62145447 .00000515 00000-0 25806-3 0 2599
2 27844 098.7055 347.8077 0010493 059.7896 300.4345 14.20918099437543
CO-57
1 27848U 03031J 11342.57832938 .00000424 00000-0 21711-3 0 2079
2 27848 098.7127 348.0034 0010631 062.0841 298.1400 14.20684659437620
AO-51
1 28375U 04025K 11341.51958188 .00000597 00000-0 19195-3 0 01396
2 28375 098.1201 311.0635 0083040 265.2760 093.8877 14.40863416391024
CP3
1 31129U 07012N 11342.56297442 .00001739 00000-0 40602-3 0 385
2 31129 097.8894 356.6209 0102104 359.8180 000.2922 14.52765500246154
CO-65
1 32785U 08021C 11342.72641670 .00002263 00000-0 28804-3 0 1709
2 32785 097.8297 043.1049 0014289 331.9526 028.0923 14.82490610195399
PRISM
1 33493U 09002B 11342.75472860 .00006547 00000-0 81402-3 0 2187
2 33493 098.1456 114.2396 0019310 195.0235 165.0409 14.82771015155374
SOHLA-1
1 33496U 09002E 11341.93416540 .00000961 00000-0 16920-3 0 05979
2 33496 098.0932 090.1532 0005760 296.2739 063.7873 14.69796165154002
TISAT-1
1 36799U 10035E 11341.79873443 .00003921 00000-0 50901-3 0 04851
2 36799 098.0853 051.6455 0016108 076.9360 283.3636 14.81244155076001
STUDSAT
1 36801U 10035G 11341.89317203 .00010178 00000-0 12740-2 0 2963
2 36801 098.0911 051.7978 0013952 064.0535 296.2115 14.82399866 76014
OOREOS
1 37224U 10062C 11330.25217324 .00002151 00000-0 30897-3 0 00339
2 37224 071.9741 041.3371 0020052 337.4654 022.5620 14.77385090005948
FO-69
1 37227U 0 11341.48162359 .00001251 00000-0 18548-3 0 00459
2 37227 071.9723 017.1178 0018365 314.3780 045.5847 14.76829035007641
NANOSALD
1 37361U 0 11242.25215765 .00180112 00000-0 75811-2 0 03512
2 37361 071.9735 221.4469 0025730 245.3422 114.7284 15.22200108033319
FO-70
1 37380U 0 11341.52303154 .00001222 00000-0 18234-3 0 00498
2 37380 071.9760 017.3443 0018899 311.5452 048.4102 14.76587263007545
NOAA-10
1 16969U 86073A 11341.69100640 .00000215 00000-0 10492-3 0 07299
2 16969 098.6034 008.9738 0013089 077.9662 282.2987 14.27508842312405
NOAA-11
1 19531U 88089A 11341.87574984 .00000049 00000-0 47467-4 0 07302
2 19531 098.7459 065.9946 0011906 054.4905 305.7392 14.14942866197311
NOAA-12
1 21263U 91032A 11342.77582028 .00000200 00000-0 84814-4 0 2229
2 21263 098.7414 000.2160 0014287 040.4573 319.8154 14.25462587 69261
MET-3/5
1 21655U 91056A 11341.64581646 .00000051 00000-0 10000-3 0 2791
2 21655 082.5569 288.2090 0014674 083.5605 276.7151 13.17035057976557
MET-2/21
1 22782U 93055A 11341.66210198 .00000076 00000-0 55434-4 0 02795
2 22782 082.5464 185.2515 0022058 336.0778 023.9339 13.83670241922546
OKEAN-4
1 23317U 94066A 11342.89552475 .00001719 00000-0 20593-3 0 7434
2 23317 082.5407 209.9700 0019963 263.6318 096.2622 14.83439458926449
NOAA-14
1 23455U 94089A 11342.83534388 .00000268 00000-0 14121-3 0 7044
2 23455 098.8409 063.6448 0009795 140.2155 220.0219 14.13861414873847
NOAA-15
1 25338U 98030A 11342.79604029 .00000381 00000-0 16290-3 0 500
2 25338 098.6726 326.7117 0010057 308.7654 051.3106 14.25001723705603
RESURS
1 25394U 98043A 11342.89677770 .00000117 00000-0 68365-4 0 9608
2 25394 098.3066 336.3629 0002338 075.0077 285.1362 14.24261586697177
FENGYUN1
1 25730U 99025A 11341.95828196 .00000802 00000-0 48641-3 0 05071
2 25730 098.8328 299.5007 0021669 191.0228 169.0467 14.09106028647535
OKEAN-0
1 25860U 99039A 11342.91138728 .00001175 00000-0 18626-3 0 4862
2 25860 097.9090 304.8030 0001561 092.9548 267.1839 14.74001403666395
NOAA-16
1 26536U 00055A 11342.81015446 .00000171 00000-0 92145-4 0 5329
2 26536 099.1223 016.7404 0009906 261.9003 098.1529 14.12680696578015
NOAA-17
1 27453U 02032A 11341.83250333 .00000380 00000-0 18227-3 0 05142
2 27453 098.3602 013.3903 0011806 006.0964 354.0333 14.24363766491378
NOAA-18
1 28654U 05018A 11341.83923247 .00000452 00000-0 27355-3 0 09904
2 28654 099.0198 293.6097 0014157 339.2188 020.8392 14.11570540337422
NOAA-19
1 33591U 09005A 11341.80407689 .00000501 00000-0 30176-3 0 01793
2 33591 098.8445 279.1784 0013736 202.5755 157.4796 14.11260577145873
HUBBLE
1 20580U 90037B 11341.26288436 .00003571 00000-0 25385-3 0 9018
2 20580 028.4713 325.5369 0003586 162.9826 197.0928 15.01951674985693
ISS
1 25544U 98067A 11343.07331196 .00022769 00000-0 28985-3 0 5865
2 25544 051.6445 000.8637 0028436 142.0785 259.7596 15.58772298748210
CO-58
1 28895U 05043F 11342.66662596 .00001387 00000-0 29528-3 0 439
2 28895 097.9418 212.0668 0018803 034.9294 325.3167 14.60372818325702
FALCON
1 30776U 07006E 11341.50955803 .00008319 00000-0 56091-3 0 2326
2 30776 035.4346 012.3789 0002074 163.7372 196.3412 15.06028956261177
MAST
1 31126U 07012K 11341.95724080 .00001270 00000-0 29480-3 0 03291
2 31126 097.8834 359.2578 0094364 350.3632 009.5753 14.53946764246337
CAPE1
1 31130U 07012P 11342.58522708 .00001478 00000-0 34748-3 0 3393
2 31130 097.8896 356.3872 0102010 000.1719 359.9427 14.52653312245959
COMPASS
1 32787U 08021E 11342.73068949 .00004146 00000-0 51311-3 0 1648
2 32787 097.8290 043.1494 0015018 330.5370 029.4996 14.83202504195424
AAUSAT2
1 32788U 08021F 11342.73761923 .00004532 00000-0 55697-3 0 1562
2 32788 097.8299 043.4429 0014369 331.8827 028.1606 14.83453903195441
DO-64
1 32789U 08021G 11341.79737924 .00007507 00000-0 89735-3 0 01703
2 32789 097.8399 043.9079 0014634 330.7029 029.3348 14.84392025195327
